Location: Albany
(35.0000°S, 118.0000°E)
Time: 21:48:46
(UTC-04:00)

SJ-6B - Visible Passes

Search period start: 18 April 2014 00:00
Search period end: 28 April 2014 00:00
Orbit: 518 x 604 km, 97.8° (Epoch: 17 April)

Date Brightness Start Highest point End Pass type
(mag) Time Alt. Az. Time Alt. Az. Time Alt. Az.
18 Apr 4.7 06:43:27 10° S 06:47:16 35° WSW 06:50:58 10° NW visible
18 Apr 3.0 17:25:38 10° NNE 17:29:48 86° ESE 17:34:07 10° S visible
19 Apr 4.6 06:42:35 10° S 06:46:25 36° WSW 06:50:07 10° NW visible
19 Apr 3.0 17:24:45 10° NNE 17:28:57 84° ESE 17:33:15 10° S visible
20 Apr 4.5 06:41:42 10° S 06:45:32 37° WSW 06:49:15 10° NW visible
20 Apr 3.1 17:23:52 10° NNE 17:28:04 82° ESE 17:32:23 10° S visible
21 Apr 4.5 06:40:48 10° S 06:44:39 37° WSW 06:48:22 10° NW visible
21 Apr 3.1 17:22:59 10° NNE 17:27:11 80° ESE 17:31:30 10° S visible
22 Apr 4.4 06:39:54 10° S 06:43:46 38° WSW 06:47:29 10° NW visible
22 Apr 3.1 17:22:05 10° NNE 17:26:17 78° ESE 17:30:36 10° S visible
23 Apr 4.4 06:39:00 10° S 06:42:52 39° WSW 06:46:35 10° NW visible
23 Apr 3.2 17:21:11 10° NNE 17:25:23 76° ESE 17:29:42 10° S visible
24 Apr 4.3 06:38:04 10° S 06:41:57 40° WSW 06:45:40 10° NW visible
24 Apr 3.2 17:20:16 10° NNE 17:24:29 73° ESE 17:28:47 10° S visible
25 Apr 4.2 06:37:08 10° S 06:41:01 41° WSW 06:44:45 10° NW visible
25 Apr 3.3 17:19:20 10° NNE 17:23:33 71° ESE 17:27:51 10° S visible
26 Apr 4.1 06:36:12 10° S 06:40:05 43° WSW 06:43:49 10° NW visible
26 Apr 3.3 17:18:24 10° NNE 17:22:37 69° ESE 17:26:55 10° S visible
27 Apr 4.1 06:35:15 10° S 06:39:08 44° WSW 06:42:52 10° NW visible
27 Apr 3.4 17:17:28 10° NNE 17:21:40 67° ESE 17:25:57 10° S visible
